FW0527 Weather Reports


time (UTC)temp
C
wind
direction
speed
KPH
gust
KPH
rain 1hr
cm
rain 24hr
cm
rain mn
cm
humidity
%
barometer
mb
20260904083037 10 294 0.0 0.0 0.00 0.00 0.00 48 1011.8
20260904081533 10 294 0.0 0.0 0.00 0.00 0.00 49 1011.8
20260904080046 10 294 0.0 0.0 0.00 0.00 0.00 51 1011.9
20260904074533 10 294 0.0 0.0 0.00 0.00 0.00 48 1011.8
20260904073035 10 294 0.0 0.0 0.00 0.00 0.00 52 1011.9
20260904071526 10 294 0.0 0.0 0.00 0.00 0.00 51 1011.8
20260904070024 10 294 0.0 0.0 0.00 0.00 0.00 52 1011.7
20260904064524 10 294 0.0 0.0 0.00 0.00 0.00 55 1011.6
20260904063024 11 294 0.0 0.0 0.00 0.00 0.00 59 1011.6
20260904061525 11 294 0.0 0.0 0.00 0.00 0.00 64 1011.6
20260904060023 11 294 0.0 0.0 0.00 0.00 0.00 62 1011.5
20260904054522 11 294 0.0 0.0 0.00 0.00 0.00 66 1011.7
20260904053023 12 294 0.0 0.0 0.00 0.00 0.00 69 1011.5
20260904051529 12 294 0.0 0.0 0.00 0.00 0.00 74 1011.5
20260904050021 13 294 0.0 0.0 0.00 0.00 0.00 75 1011.5
20260904044534 13 294 0.0 0.0 0.00 0.00 0.00 75 1011.5
20260904043020 13 294 0.0 0.0 0.00 0.00 0.00 74 1011.4
20260904041532 13 294 0.0 0.0 0.00 0.00 0.00 73 1011.5
20260904040018 14 294 0.0 0.0 0.00 0.00 0.00 72 1011.6
20260904034517 14 294 0.0 0.0 0.00 0.00 0.00 70 1011.5
20260904033017 15 294 0.0 0.0 0.00 0.00 0.00 68 1011.6
20260904031515 16 299 0.0 0.0 0.00 0.00 0.00 65 1011.5
20260904030014 16 299 0.0 0.0 0.00 0.00 0.00 63 1011.3
20260904024514 17 299 0.0 0.0 0.00 0.00 0.00 62 1011.1
20260904023013 17 299 0.0 0.0 0.00 0.00 0.00 62 1011.0
20260904021516 18 299 0.0 0.0 0.00 0.00 0.00 62 1011.0
20260904020012 18 299 0.0 0.0 0.00 0.00 0.00 61 1010.9
20260904014511 19 306 0.0 0.0 0.00 0.00 0.00 60 1011.0
20260904013010 20 298 0.0 0.0 0.00 0.00 0.00 58 1011.1
20260904011508 20 308 0.0 14.5 0.00 0.00 0.00 56 1011.1
20260904010007 21 317 0.0 17.7 0.00 0.00 0.00 54 1011.1
20260904004508 21 311 0.0 14.5 0.00 0.00 0.00 50 1011.2
20260904003004 22 298 0.0 11.3 0.00 0.00 0.00 47 1011.2
20260904001502 22 273 0.0 4.8 0.00 0.00 0.00 44 1011.2
20260904000002 22 325 0.0 12.9 0.00 0.00 0.00 43 1011.3
20260903234600 23 315 4.8 14.5 0.00 0.00 0.00 43 1011.2
20260903233059 23 311 0.0 20.9 0.00 0.00 0.00 44 1011.3
20260903231611 23 290 0.0 12.9 0.00 0.00 0.00 43 1011.5
20260903230110 24 232 0.0 16.1 0.00 0.00 0.00 41 1011.5
20260903224555 24 287 6.4 24.1 0.00 0.00 0.00 40 1011.7
20260903223105 25 306 0.0 19.3 0.00 0.00 0.00 39 1011.9
20260903221551 25 221 0.0 11.3 0.00 0.00 0.00 39 1012.0
20260903214547 27 316 0.0 16.1 0.00 0.00 0.00 32 1012.1
20260903213045 27 294 0.0 17.7 0.00 0.00 0.00 26 1012.3
20260903211543 28 304 0.0 19.3 0.00 0.00 0.00 22 1012.4
20260903210039 28 327 0.0 20.9 0.00 0.00 0.00 21 1012.4
20260903204538 28 320 0.0 12.9 0.00 0.00 0.00 21 1012.7
20260903203037 28 327 0.0 12.9 0.00 0.00 0.00 20 1012.7
20260903201534 28 330 0.0 19.3 0.00 0.00 0.00 19 1012.9
20260903200043 28 317 3.2 19.3 0.00 0.00 0.00 19 1013.0
20260903194540 27 360 0.0 6.4 0.00 0.00 0.00 19 1013.1
20260903193027 27 308 0.0 20.9 0.00 0.00 0.00 18 1013.4
20260903191525 27 313 0.0 14.5 0.00 0.00 0.00 18 1013.3
20260903190026 27 283 0.0 17.7 0.00 0.00 0.00 17 1013.4
20260903184524 27 300 0.0 17.7 0.00 0.00 0.00 15 1013.7
20260903183036 27 266 1.6 19.3 0.00 0.00 0.00 14 1013.8
20260903181526 26 349 0.0 12.9 0.00 0.00 0.00 14 1014.0
20260903180019 26 322 0.0 19.3 0.00 0.00 0.00 14 1013.9
20260903174521 26 313 0.0 14.5 0.00 0.00 0.00 15 1014.0
20260903173013 26 287 0.0 6.4 0.00 0.00 0.00 16 1014.0
20260903171517 25 315 0.0 8.0 0.00 0.00 0.00 17 1013.7
20260903170013 24 296 0.0 8.0 0.00 0.00 0.00 18 1013.6
20260903164502 23 347 0.0 0.0 0.00 0.00 0.00 21 1013.5
20260903163057 22 332 0.0 0.0 0.00 0.00 0.00 25 1013.4
20260903161611 21 81 0.0 0.0 0.00 0.00 0.00 30 1013.4
20260903160049 19 87 0.0 0.0 0.00 0.00 0.00 33 1013.5
20260903154544 16 89 0.0 0.0 0.00 0.00 0.00 38 1013.6
20260903153039 13 89 0.0 0.0 0.00 0.00 0.00 43 1013.5
20260903151538 12 103 0.0 0.0 0.00 0.00 0.00 41 1013.7
20260903150031 11 103 0.0 0.0 0.00 0.00 0.00 40 1013.9
20260903144528 10 103 0.0 0.0 0.00 0.00 0.00 39 1013.7
20260903143036 9 103 0.0 0.0 0.00 0.00 0.00 38 1013.7
20260903141525 8 103 0.0 0.0 0.00 0.00 0.00 35 1013.4
20260903140025 8 103 0.0 0.0 0.00 0.00 0.00 33 1013.1
20260903134527 8 103 0.0 0.0 0.00 0.00 0.00 31 1012.9
20260903133024 8 103 0.0 0.0 0.00 0.00 0.00 30 1012.9
20260903131524 8 103 0.0 0.0 0.00 0.00 0.00 29 1012.8
20260903130022 8 103 0.0 0.0 0.00 0.00 0.00 29 1012.6
20260903124544 8 103 0.0 0.0 0.00 0.00 0.00 29 1012.7
20260903123020 8 103 0.0 0.0 0.00 0.00 0.00 28 1012.6
20260903121537 8 103 0.0 0.0 0.00 0.00 0.00 28 1012.7
20260903120018 8 103 0.0 0.0 0.00 0.00 0.00 28 1012.6
20260903114520 8 103 0.0 0.0 0.00 0.00 0.00 28 1012.6
20260903113019 8 103 0.0 0.0 0.00 0.00 0.00 27 1012.8
20260903111513 8 103 0.0 0.0 0.00 0.00 0.00 26 1013.0
20260903110012 8 103 0.0 0.0 0.00 0.00 0.00 27 1013.0
20260903104511 8 103 0.0 0.0 0.00 0.00 0.00 27 1013.2
20260903103010 8 103 0.0 0.0 0.00 0.00 0.00 28 1013.1
20260903101509 8 103 0.0 0.0 0.00 0.00 0.00 29 1013.1
20260903100018 8 103 0.0 0.0 0.00 0.00 0.00 30 1013.4
20260903094502 8 103 0.0 0.0 0.00 0.00 0.00 31 1013.5
20260903093103 8 103 0.0 0.0 0.00 0.00 0.00 32 1013.6
20260903091603 8 103 0.0 0.0 0.00 0.00 0.00 32 1013.7
20260903090055 8 103 0.0 0.0 0.00 0.00 0.00 32 1013.7
20260903084552 9 103 0.0 0.0 0.00 0.00 0.00 31 1013.8